207  
ASUS44 KSJT 281010  
RWRSJT  
WEST CENTRAL TEXAS REGIONAL WEATHER ROUNDUP  
NATIONAL WEATHER SERVICE SAN ANGELO TX  
500 AM CDT SUN MAY 28 2017  
 
NOTE: "FAIR" INDICATES FEW OR NO CLOUDS BELOW 12,000 FEET WITH NO  
SIGNIFICANT WEATHER AND/OR S TO VISIBILITY
.  
 
TXZ049-054-064>066-071>073-076>078-098-099-113-114-127-128-139-140-  
154-155-168>170-281100   
..LOCATIONS ACROSS WEST CENTRAL TEXAS
 
 
 
CITY SKY/WX TMP DP RH WIND PRES REMARKS
 
SAN ANGELO CLEAR 72 67 84 S6 29.84R  
ABILENE CLEAR 72 61 68 N18G31 29.93R  
DYESS AFB CLEAR 72 61 68 N15G23 29.94R  
JUNCTION CLEAR 76 73 91 SW3 29.86S  
SWEETWATER CLEAR 70 59 68 N16G25 30.00R  
BROWNWOOD CLOUDY 75 73 94 SW5 29.85R FOG  
COLEMAN CLOUDY 77 64 62 N16G28 29.88R  
SONORA CLEAR 72 70 94 CALM 29.92S  
OZONA N/A 68 66 94 SW5 29.90S FOG  
BRADY NOT AVBL  

 
 
TEXAS PANHANDLE/OKLAHOMA PANHANDLE  
 
CITY SKY/WX TMP DP RH WIND PRES REMARKS
 
AMARILLO CLEAR 52 47 83 NW12 30.13R  
BORGER PTCLDY 55 47 74 N9 30.12R  
CANADIAN CLEAR 55 51 87 NW3 30.07S  
DALHART CLOUDY 56 45 66 N14 30.16R  
DUMAS CLOUDY 53 44 72 N20 30.13R  
GUYMON NOT AVBL  
HEREFORD SUNNY 51 46 81 N7 30.15R  
PAMPA MOSUNNY 51 48 90 NW8 30.12R  
PERRYTON CLEAR 56 50 82 NW14 30.08R  

 
 
SOUTHERN PANHANDLE/SOUTH PLAINS/ROLLING PLAINS  
 
CITY SKY/WX TMP DP RH WIND PRES REMARKS
 
LUBBOCK CLEAR 58 46 64 N15 30.08R  
SNYDER CLEAR 65 52 61 N17G25 30.00R  
CHILDRESS CLEAR 62 53 72 N13 30.01R  
SEMINOLE MOSUNNY 59 47 63 NE15G28 30.06S  

 
 
PERMIAN BASIN  
 
CITY SKY/WX TMP DP RH WIND PRES REMARKS
 
MIDLAND CLOUDY 73 58 59 NE22G32 29.97R  
ODESSA CLOUDY 73 47 39 NE22G29 29.98R  
WINK CLOUDY 73 55 53 N26G33 29.96R  

 
 
FAR WEST/SOUTHWEST MOUNTAINS/TRANS PECOS  
 
CITY SKY/WX TMP DP RH WIND PRES REMARKS
 
ALPINE SUNNY 68 46 45 SW7 30.08S  
DRYDEN N/A 74 70 87 N6 29.84S  
EL PASO MOCLDY 68 14 12 E9 30.01R  
FORT STOCKTON CLEAR 74 60 61 S8 29.90F  
GUADALUPE PASS CLOUDY 72 14 11 MISG 30.12F  
MARFA PTCLDY 65 31 28 NW10 30.07F  
PECOS CLOUDY 75 29 18 N25G33 29.93R  

 
 
DALLAS/FORT WORTH METROPLEX  
 
CITY SKY/WX TMP DP RH WIND PRES REMARKS
 
DFW AIRPORT TSTM 75 67 76 E10 29.81R  
FTW MEACHAM MOCLDY 78 68 71 E12 29.81R  
DAL-EXECUTIVE CLOUDY 79 73 82 SE6 29.82R  
GRAND PRAIRIE MOCLDY 79 70 74 SE6 29.84R  
ADDISON TSTM 74 65 73 E8 29.86R  
MESQUITE CLOUDY 77 69 76 NE15 29.85R  
LANCASTER CLOUDY 77 71 81 CALM 29.86R  

 
 
NORTH CENTRAL TEXAS  
 
CITY SKY/WX TMP DP RH WIND PRES REMARKS
 
SHRMAN/DENISON CLOUDY 67 65 94 CALM 29.83F THUNDER  
GAINESVILLE CLOUDY 68 65 89 CALM 29.87R  
BRIDGEPORT MOSUNNY 70 68 93 N5 29.86R  
DENTON CLOUDY 69 68 96 N8 29.82R  
WAXAHACHIE CLOUDY 76 72 85 CALM 29.87R  
GRANBURY CLOUDY 81 74 79 SE3 29.82S  

 
 
WESTERN NORTH TEXAS  
 
CITY SKY/WX TMP DP RH WIND PRES REMARKS
 
WICHITA FALLS PTCLDY 70 61 73 N17 29.89R  
VERNON SUNNY 69 55 62 N13 29.95R  
BRECKENRIDGE MOSUNNY 76 62 62 N13G25 29.88R  
COMANCHE PTCLDY 78 75 91 W3 29.83R  

 
 
CENTRAL AND SOUTH CENTRAL TEXAS  
 
CITY SKY/WX TMP DP RH WIND PRES REMARKS
 
AUSTIN/BERGSTM CLOUDY 77 74 90 CALM 29.82R  
WACO CLEAR 75 72 90 S14 29.80R  
HILLSBORO SUNNY 75 73 91 S15 29.79S  
TEMPLE CLEAR 74 72 93 S10 29.82R  
KILLEEN-GRAY CLEAR 74 71 91 S13 29.80R  
FORT HOOD CLEAR 72 70 93 S8 29.78R  
GEORGETOWN PTCLDY 75 70 83 S6 29.83R  
LAGO VISTA FAIR 75 72 89 SW3 29.86R  
SAN MARCOS N/A N/A N/A N/A MISG N/A  
NEW BRAUNFELS CLOUDY 75 73 93 CALM 29.81R  
RANDOLPH AFB CLOUDY 76 76 100 SW3 29.82R  
SAN ANTONIO CLOUDY 75 72 90 SW5 29.82S  
STINSON CLOUDY 74 71 91 CALM 29.80R  
PLEASANTON NOT AVBL  
LA GRANGE CLOUDY 80 76 88 S6 29.80R  
GIDDINGS CLOUDY 77 73 86 SW6 29.83R  

 
 
EAST TEXAS  
 
CITY SKY/WX TMP DP RH WIND PRES REMARKS
 
PARIS CLOUDY 64 63 94 SE9 29.83F  
CLARKSVILLE NOT AVBL  
TYLER CLOUDY 76 74 93 NE8 29.89R  
LONGVIEW CLOUDY 74 65 73 VRB6G24 29.94R  
PALESTINE MOSUNNY 75 73 93 S8 29.83R  
NACOGDOCHES CLOUDY 73 72 94 CALM 29.82R  

 
 
TEXAS HILL COUNTRY AND EDWARDS PLATEAU  
 
CITY SKY/WX TMP DP RH WIND PRES REMARKS
 
LLANO SUNNY 73 72 94 CALM 29.87R  
HORSESHOE BAY NOT AVBL  
KERRVILLE CLOUDY 74 72 94 CALM 29.87S  
FREDERICKSBRG CLOUDY 72 69 90 CALM 29.88R  
ROCKSPRINGS PTSUNNY 73 73 100 S5 29.91R FOG  
HONDO PTCLDY 73 71 93 NE3 29.82S FOG  
UVALDE SUNNY 73 72 97 CALM 29.82S FOG  
DEL RIO CLEAR 78 73 84 E10 29.77F  

 
 
SOUTHEAST TEXAS  
 
CITY SKY/WX TMP DP RH WIND PRES REMARKS
 
COLLEGE STN CLOUDY 77 75 93 S8 29.83R  
CALDWELL NOT AVBL  
CROCKETT CLOUDY 73 73 100 CALM 29.87R  
BRENHAM CLOUDY 80 76 86 S8 29.83R  
HUNTSVILLE CLEAR 77 72 84 S8 29.82R  
CONROE MOCLDY 77 73 87 S7 29.82S  
HOUSTON BUSH MOCLDY 80 74 81 S8 29.82F  
HOUSTON HOBBY PTCLDY 79 75 87 S6 29.82F  
PERLAND CLOUDY 82 76 81 S5 29.84F  
WHARTON MOSUNNY 78 73 86 S8 29.82S  

 
 
THE UPPER TEXAS COAST  
 
CITY SKY/WX TMP DP RH WIND PRES REMARKS
 
ORANGE CLOUDY 80 77 90 SW8 29.88S  
PORT ARTHUR CLOUDY 79 76 90 S10 29.85F  
GALVESTON CLOUDY 82 78 88 S14G22 29.86F  
ANGLETON CLOUDY 81 77 88 S10 29.83F  
BAY CITY CLOUDY 80 76 90 S7 29.82F  

 
 
TEXAS COASTAL BEND, RIO GRANDE PLAINS DEEP SOUTH TEXAS  
 
CITY SKY/WX TMP DP RH WIND PRES REMARKS
 
VICTORIA CLOUDY 78 75 90 S7 29.80S  
BEEVILLE PTSUNNY N/A N/A N/A S14 29.76F  
ROCKPORT MOCLDY 81 75 82 S9G23 29.77F  
PORT ARANSAS CLOUDY 80 76 89 S14G20 29.79F  
PORT LAVACA PTSUNNY 79 78 96 S6 29.80S  
CORPUS CHRISTI MOCLDY 79 77 94 S12 29.77F  
KINGSVILLE NAS PTCLDY 79 78 97 S13 29.77F  
COTULLA PTCLDY 78 72 81 CALM 29.78S  
LAREDO MOCLDY 79 74 84 S15 29.75F  
BROWNSVILLE CLOUDY 83 78 85 S12 29.82S  
PORT ISABEL MOCLDY 82 78 88 S14 29.80F  
HEBBRONVILLE CLOUDY 76 74 93 S13 29.78F FOG  
MCALLEN CLOUDY 82 77 84 SE14 29.79F  
WESLACO CLOUDY 79 76 92 S7 29.79S  
FALFURRIAS PTSUNNY 79 76 92 SE9 29.77F  
EDINBURG CLOUDY 82 76 83 S8 29.79F  

 
 
 
CLICK HERE TO GO TO PREVIOUS BULLETINS.

The Nexlab TX Page Main Text Page